User: anonymous   Login
Location: Unspecified
(0.0000°N, 0.0000°E)
Time: 01:14:25
(UTC+01:00)
Language:

ARIANE 5 R/B - Orbit

View from above orbital plane
View from above orbital plane
View from above satellite
View from above satellite

Ground track
Ground track

The orbit data is extracted from the following two-line orbital elements,

1 28787U 05028B   17017.60266507 -.00000027 +00000-0 +64992-3 0  9998
2 28787 006.9403 094.2785 7155393 087.0781 010.1950 02.26564784094671
Epoch (UTC): 17 January 2017 14:27:50
Eccentricity: 0.7155393
inclination: 6.9403°
perigee height: 587 km
apogee height: 35630 km
right ascension of ascending node: 94.2785°
argument of perigee: 87.0781°
revolutions per day: 2.26564784
mean anomaly at epoch: 10.1950°
orbit number at epoch: 9467

The dashed part of the orbit path shows where the satellite is in the earth's shadow,  

DLR